Wind_Speed
20 20 20 20 20 21 21 22 22 23 24 26 27 28 28 29 30 30 31 31 32 32 32 32 32 33 33 34 35 36 36 37 39 40 40 40 41 43 44 45 46 47 49
20 20 20 20 21 21 22 23 23 24 26 26 27 28 29 29 30 30 31 31 31 31 31 32 32 33 34 35 36 38 38 39 41 42 43 42 42 44 46 47 48 49 51
20 20 20 21 22 22 23 23 24 26 27 27 28 29 29 30 30 30 31 31 31 31 32 33 34 35 36 37 38 40 41 42 43 45 47 48 47 47 47 50 52 53 54
21 21 21 22 23 23 24 25 26 27 28 29 30 30 30 31 31 31 31 32 32 33 34 35 36 37 38 39 41 42 43 45 46 48 50 52 53 54 53 52 54 57 59
22 22 22 23 23 24 25 26 28 29 30 30 31 32 32 32 32 33 33 34 34 35 36 37 38 39 40 42 44 45 47 49 50 52 54 56 58 60 62 61 60 61 63
23 23 23 24 24 25 27 28 29 31 31 32 33 33 34 34 34 34 35 36 36 37 38 39 41 42 44 45 47 49 51 53 55 57 58 61 62 64 67 69 68 69 69
23 24 24 25 26 27 28 30 31 32 33 34 34 35 36 36 37 37 38 38 39 40 41 42 44 46 48 49 51 53 55 57 59 61 63 65 67 70 72 74 75 76 75
25 25 26 26 27 29 30 32 33 34 35 36 36 37 38 38 39 40 41 41 42 43 44 46 47 49 51 53 55 56 58 61 63 65 67 69 71 74 76 79 81 82 81
26 27 27 28 29 31 32 34 35 36 37 38 39 39 40 40 41 41 42 43 44 46 47 49 50 52 54 56 58 60 62 65 67 69 71 73 75 78 79 81 84 86 87
27 29 30 31 32 33 35 37 38 38 39 40 41 41 41 42 42 42 44 45 46 48 50 51 53 55 57 59 61 63 66 68 70 72 75 77 78 80 82 84 86 87 89
29 30 32 33 35 37 38 39 40 40 41 42 42 42 42 42 43 44 46 47 49 51 52 54 56 58 60 62 65 67 70 72 74 76 78 79 81 82 84 85 85 86 86
32 33 34 36 38 39 40 41 42 42 43 43 43 43 44 44 46 47 48 49 51 53 55 56 59 61 63 66 68 70 72 75 76 78 80 81 82 83 83 83 83 82 82
34 36 37 39 40 41 42 43 43 44 44 44 45 45 46 47 48 49 51 52 54 55 57 59 62 64 66 69 71 73 75 77 78 80 81 82 83 82 81 80 79 78 78
36 38 39 41 42 43 43 44 45 45 46 46 46 47 48 49 50 52 53 55 56 58 60 62 65 67 69 72 74 76 77 78 79 80 81 82 82 80 79 77 75 73 71
38 40 41 42 43 44 45 45 46 46 47 47 48 49 50 51 52 54 55 57 59 61 63 65 67 70 72 75 76 78 78 79 80 80 81 80 79 77 74 72 69 67 65
41 42 43 44 45 45 46 46 47 47 47 48 49 50 51 53 54 56 57 59 61 64 66 68 70 72 74 76 78 79 80 80 81 80 79 76 74 71 69 67 64 62 59
43 44 44 45 46 46 46 46 47 47 48 49 50 51 53 55 56 58 60 62 64 66 68 71 73 75 76 78 79 80 81 81 81 79 75 72 69 66 64 61 58 55 53
44 44 45 45 45 46 46 47 47 48 49 50 51 53 55 57 58 60 63 65 67 69 71 73 75 76 77 79 80 81 81 80 78 74 71 68 64 62 59 56 53 50 48
44 44 44 45 45 46 46 47 48 49 50 52 54 55 57 59 61 63 65 67 69 71 73 75 77 77 78 80 80 81 80 77 73 69 66 63 59 56 54 52 49 46 45
43 44 44 45 46 46 47 48 49 50 52 53 55 57 59 61 63 66 68 70 72 73 75 76 78 79 79 80 80 80 78 73 69 64 60 57 55 52 50 48 46 44 42
43 44 44 45 46 47 48 49 50 52 54 55 57 59 61 64 66 68 70 72 74 75 77 78 79 80 80 80 78 76 73 69 64 59 55 52 49 47 46 45 43 42 41
44 44 45 45 46 48 49 50 52 54 56 57 59 61 64 66 68 70 72 74 76 77 79 80 79 79 79 77 75 71 67 63 58 54 50 47 45 44 43 42 42 41 40
44 45 45 46 47 49 50 52 54 56 57 59 61 63 66 68 70 72 74 76 78 80 80 81 80 78 76 73 69 65 60 56 53 49 46 44 43 42 41 41 40 40 39
45 46 46 47 49 50 52 54 56 58 59 61 63 66 68 70 72 74 76 78 80 81 81 81 79 76 72 67 62 57 53 49 47 45 43 42 41 41 40 39 39 38 36
46 47 48 49 50 52 54 56 58 59 61 64 66 68 71 73 75 76 78 80 81 82 81 79 76 72 66 60 55 51 48 45 43 42 40 39 38 37 37 37 36 35 35
47 47 49 50 52 54 55 57 60 62 64 66 69 71 73 75 78 79 79 80 80 79 77 74 70 65 60 53 49 46 44 42 41 40 39 37 36 36 35 34 33 33 33
Wind_Direction
276 276 276 277 278 279 280 282 283 284 285 286 287 288 289 290 290 290 290 290 289 289 289 289 288 288 287 287 286 286 286 286 285 284 283 283 283 282 281 281 280 280 279
276 276 277 278 280 281 283 284 285 286 288 288 289 290 291 291 291 292 292 292 291 290 290 290 290 289 289 289 288 288 288 288 287 286 285 283 282 283 283 282 282 281 280
275 276 278 281 282 284 285 287 288 289 290 290 291 292 292 292 292 292 292 291 290 290 291 291 291 290 290 290 290 290 290 290 290 289 289 287 285 282 282 283 283 282 281
275 277 280 282 284 286 287 289 290 290 291 292 292 293 294 294 293 292 291 291 290 290 291 291 291 291 291 291 291 291 291 291 291 291 291 291 290 288 285 283 284 284 283
276 279 281 283 285 287 288 290 291 291 292 292 293 294 294 294 293 292 292 292 291 291 291 292 292 292 292 292 292 292 292 293 292 292 292 291 291 291 289 287 285 284 284
278 280 282 284 285 287 289 290 291 292 292 292 293 294 293 293 292 292 292 292 292 292 292 293 293 293 293 293 293 293 294 294 294 293 293 293 292 292 291 290 289 287 286
279 281 282 284 286 287 289 291 291 291 291 291 292 293 292 292 292 292 292 292 292 292 292 293 293 294 294 294 294 294 295 295 295 295 295 295 294 294 293 292 291 289 288
280 281 283 285 286 288 290 291 292 291 291 291 292 292 292 292 292 292 292 292 292 293 293 293 294 294 295 295 295 296 296 296 296 296 296 296 296 295 294 294 293 291 289
281 282 283 285 287 289 291 292 292 292 291 291 291 292 291 291 292 292 292 292 292 293 294 294 294 295 296 296 296 297 297 297 297 297 297 297 296 296 295 294 293 292 291
282 284 285 287 288 290 291 292 293 293 292 292 292 292 292 292 292 292 292 292 293 294 294 295 296 296 297 297 297 298 298 298 298 298 298 298 297 296 296 295 294 293 292
284 286 287 288 289 291 292 293 293 293 293 292 292 292 292 292 293 293 293 294 294 295 295 296 297 297 298 298 299 299 299 300 300 300 299 299 298 298 297 296 295 294 293
285 287 288 289 290 291 292 293 293 293 293 292 292 292 292 293 293 294 295 295 296 296 297 298 299 299 299 300 301 301 301 301 301 301 301 300 300 299 298 297 296 295 294
286 287 288 289 290 291 292 292 293 293 293 292 292 292 293 294 294 295 296 296 297 298 299 300 300 301 302 302 302 302 303 303 303 303 302 302 301 300 299 298 297 296 295
286 287 288 289 290 291 292 292 293 293 293 292 293 293 294 295 295 296 297 298 299 300 301 302 302 303 303 303 303 304 304 304 304 304 304 303 302 301 300 299 298 296 295
287 288 289 289 290 291 291 292 292 292 292 292 293 294 295 296 297 297 298 299 300 301 302 303 304 304 305 305 305 305 305 305 305 305 304 303 302 301 300 299 298 296 295
287 288 289 289 290 291 291 291 291 292 292 293 294 295 296 297 298 299 300 301 302 303 304 304 305 305 306 306 306 306 306 306 306 306 305 303 302 301 300 298 297 297 296
288 289 289 289 290 290 290 291 291 292 292 293 294 295 297 298 299 300 301 302 303 304 304 305 306 307 307 307 307 307 307 308 307 306 304 303 301 300 299 297 296 296 295
288 288 289 289 289 289 290 291 291 292 293 294 295 296 298 299 300 301 302 303 304 305 305 306 307 308 308 308 308 308 308 308 307 305 304 302 301 299 298 297 296 295 294
287 288 288 288 289 290 291 291 292 293 294 295 296 297 298 299 301 302 303 304 305 306 307 308 308 309 309 309 309 309 309 308 306 305 304 302 301 299 298 297 296 295 293
287 288 289 289 290 290 291 292 293 293 294 296 297 298 299 301 302 303 304 305 306 307 308 309 309 310 310 310 309 309 308 307 306 304 303 302 301 299 298 297 296 295 294
288 289 289 290 290 291 292 292 293 294 295 296 298 299 300 302 303 304 306 307 308 308 309 310 310 310 310 310 309 308 307 307 305 304 303 302 301 300 298 298 297 296 295
289 290 290 290 291 292 292 293 294 295 296 298 299 300 302 303 305 306 307 308 309 309 310 310 311 311 310 309 308 307 307 306 305 304 303 302 302 300 299 298 298 296 295
290 290 290 291 291 292 293 293 295 296 297 299 300 302 303 305 306 307 308 309 310 310 311 311 311 311 310 309 307 307 306 305 305 305 304 303 302 301 299 298 298 296 295
290 290 290 291 291 292 294 295 296 297 299 301 302 304 305 306 308 309 310 310 311 311 311 311 311 310 310 308 306 306 305 304 304 304 304 303 302 301 300 299 298 296 295
290 291 291 292 292 294 295 297 298 300 301 303 304 305 307 308 309 309 310 311 311 312 312 311 311 310 309 308 306 305 305 305 304 304 304 303 301 300 300 299 297 296 295
291 291 292 293 294 296 298 299 300 302 303 304 306 307 308 309 309 310 310 311 312 312 312 311 310 309 309 308 306 306 306 306 306 307 307 305 303 302 301 300 297 296 295
Height
5814 5814 5813 5813 5812 5812 5811 5810 5809 5807 5806 5804 5802 5801 5799 5797 5795 5792 5790 5788 5787 5785 5783 5781 5780 5778 5777 5775 5773 5772 5770 5768 5766 5765 5765 5764 5762 5760 5758 5757 5755 5754 5752
5809 5809 5808 5808 5807 5806 5805 5804 5803 5801 5800 5798 5796 5794 5792 5790 5788 5785 5783 5781 5779 5777 5775 5774 5772 5770 5768 5767 5764 5762 5761 5759 5756 5754 5753 5753 5754 5750 5748 5745 5743 5741 5739
5804 5804 5803 5803 5802 5801 5799 5798 5797 5795 5793 5791 5789 5787 5785 5783 5781 5779 5776 5774 5772 5770 5768 5766 5764 5762 5760 5758 5755 5753 5751 5749 5746 5743 5740 5738 5738 5738 5738 5734 5730 5727 5725
5799 5798 5798 5797 5796 5795 5793 5792 5790 5788 5786 5784 5782 5780 5778 5776 5774 5771 5769 5767 5765 5762 5760 5758 5755 5753 5751 5748 5746 5743 5740 5738 5735 5732 5728 5724 5721 5719 5720 5721 5717 5712 5709
5793 5793 5792 5791 5790 5789 5787 5785 5784 5782 5779 5777 5775 5773 5770 5768 5766 5764 5761 5759 5757 5754 5752 5749 5746 5744 5741 5738 5735 5732 5729 5725 5722 5719 5715 5711 5707 5702 5698 5699 5700 5697 5692
5788 5787 5786 5785 5784 5782 5781 5779 5777 5775 5772 5770 5768 5765 5763 5760 5758 5756 5753 5751 5748 5746 5743 5740 5737 5734 5731 5727 5724 5720 5717 5713 5708 5704 5700 5695 5691 5686 5680 5677 5676 5674 5672
5782 5781 5780 5779 5778 5776 5774 5772 5770 5768 5765 5763 5760 5758 5755 5752 5750 5747 5745 5742 5739 5736 5733 5730 5727 5723 5720 5716 5712 5708 5704 5699 5694 5689 5684 5678 5673 5667 5661 5655 5652 5649 5648
5775 5775 5774 5772 5771 5769 5767 5765 5763 5760 5758 5755 5752 5750 5747 5744 5741 5738 5735 5732 5729 5726 5723 5719 5716 5712 5707 5703 5699 5694 5689 5684 5678 5673 5667 5660 5654 5647 5639 5632 5626 5622 5622
5768 5768 5767 5765 5764 5762 5760 5757 5755 5752 5750 5747 5744 5741 5738 5735 5732 5729 5725 5722 5719 5715 5712 5708 5704 5699 5694 5689 5684 5679 5674 5668 5662 5655 5648 5642 5634 5626 5618 5610 5602 5594 5590
5761 5760 5759 5758 5756 5754 5751 5749 5746 5744 5741 5738 5735 5731 5728 5725 5722 5718 5715 5711 5708 5704 5700 5695 5691 5686 5680 5675 5669 5663 5657 5651 5644 5636 5629 5621 5613 5604 5596 5587 5578 5569 5559
5754 5753 5751 5749 5747 5745 5742 5740 5737 5734 5731 5728 5725 5721 5718 5715 5711 5708 5704 5700 5696 5691 5687 5682 5677 5671 5666 5659 5653 5646 5639 5632 5624 5616 5607 5599 5590 5581 5572 5562 5553 5544 5534
5745 5744 5742 5740 5738 5736 5733 5730 5727 5724 5721 5717 5714 5711 5708 5704 5700 5696 5692 5688 5683 5678 5673 5668 5662 5656 5649 5642 5635 5628 5620 5612 5604 5595 5585 5576 5566 5557 5547 5538 5529 5520 5510
5737 5735 5733 5731 5729 5726 5723 5720 5717 5714 5710 5707 5703 5700 5696 5693 5689 5684 5680 5675 5670 5665 5659 5653 5646 5639 5632 5625 5617 5609 5601 5592 5582 5573 5563 5553 5542 5533 5523 5514 5505 5496 5488
5728 5726 5724 5721 5718 5715 5712 5709 5706 5703 5699 5696 5692 5688 5684 5680 5676 5671 5666 5661 5656 5650 5644 5637 5630 5622 5614 5606 5597 5589 5580 5571 5561 5551 5540 5529 5519 5509 5500 5491 5483 5474 5466
5719 5716 5713 5711 5708 5705 5701 5698 5695 5691 5688 5684 5680 5676 5672 5668 5663 5658 5653 5647 5641 5635 5628 5621 5613 5604 5596 5586 5577 5569 5560 5550 5541 5530 5518 5507 5497 5487 5477 5469 5462 5454 5447
5708 5705 5702 5699 5696 5693 5690 5686 5683 5679 5676 5672 5668 5664 5659 5654 5649 5644 5638 5632 5626 5619 5611 5604 5595 5587 5577 5567 5557 5547 5538 5529 5519 5508 5497 5486 5476 5467 5458 5450 5442 5435 5429
5697 5694 5691 5688 5685 5682 5678 5675 5671 5668 5664 5660 5655 5651 5646 5641 5635 5629 5623 5617 5610 5603 5595 5586 5577 5568 5558 5547 5537 5526 5516 5507 5496 5485 5476 5466 5457 5447 5440 5433 5426 5420 5414
5685 5682 5679 5676 5673 5670 5667 5663 5659 5655 5652 5647 5643 5638 5633 5627 5621 5615 5608 5601 5594 5586 5577 5568 5559 5549 5538 5527 5516 5506 5496 5486 5475 5464 5455 5446 5439 5429 5422 5416 5412 5407 5402
5674 5671 5668 5665 5662 5658 5655 5651 5647 5643 5639 5634 5629 5624 5618 5613 5606 5600 5592 5585 5577 5568 5559 5550 5539 5529 5519 5507 5495 5484 5475 5465 5456 5446 5436 5427 5420 5413 5405 5400 5396 5393 5389
5662 5659 5656 5653 5650 5646 5643 5639 5635 5631 5626 5621 5616 5610 5604 5598 5591 5583 5576 5567 5558 5550 5541 5531 5520 5509 5499 5487 5475 5463 5453 5445 5437 5429 5420 5411 5403 5397 5391 5386 5382 5379 5375
5651 5648 5645 5641 5638 5634 5631 5627 5622 5618 5613 5608 5602 5596 5589 5582 5574 5567 5558 5549 5541 5532 5522 5513 5503 5490 5478 5467 5455 5443 5432 5424 5418 5411 5404 5397 5389 5383 5378 5373 5368 5365 5361
5639 5636 5633 5629 5626 5622 5618 5614 5609 5604 5599 5594 5587 5581 5574 5566 5558 5549 5541 5531 5521 5512 5502 5492 5483 5471 5458 5446 5435 5425 5415 5405 5399 5394 5388 5382 5376 5370 5365 5361 5356 5352 5349
5627 5624 5621 5617 5613 5609 5605 5600 5595 5590 5585 5579 5572 5565 5558 5549 5541 5532 5522 5513 5502 5491 5481 5471 5461 5452 5440 5428 5416 5407 5399 5391 5384 5379 5373 5368 5363 5358 5354 5349 5345 5341 5337
5616 5612 5609 5605 5601 5596 5591 5586 5581 5575 5569 5563 5556 5549 5541 5533 5524 5514 5504 5493 5482 5471 5460 5449 5439 5431 5421 5410 5400 5392 5385 5378 5372 5366 5361 5356 5351 5346 5341 5338 5333 5330 5326
5604 5600 5596 5592 5588 5583 5578 5572 5566 5560 5554 5547 5540 5532 5524 5515 5506 5497 5486 5474 5463 5449 5438 5428 5417 5408 5403 5394 5384 5376 5371 5365 5359 5354 5350 5345 5340 5335 5331 5327 5323 5319 5316
5591 5587 5583 5579 5574 5569 5564 5557 5551 5545 5538 5531 5523 5515 5506 5497 5487 5477 5469 5457 5444 5432 5419 5407 5397 5389 5382 5376 5370 5363 5358 5352 5347 5342 5338 5333 5329 5324 5320 5316 5313 5309 5306